Tracking 31027 objects as of 19-Jul-2025
HD Live streaming from Space Station
objects crossing your sky now

OPS 9332 (IDSCS 17)

Track OPS 9332 (IDSCS 17) now!
OPS 9332 (IDSCS 17) is classified as:


NORAD ID: 2863
Int'l Code: 1967-066B
Perigee: 33,054.3 km
Apogee: 33,534.4 km
Inclination: 2.1 °
Period: 1,310.3 minutes
Semi major axis: 39665 km
RCS: 0.6309 m2 (medium)
Launch date: July 1, 1967
Source: United States (US)
Launch site: AIR FORCE EASTERN TEST RANGE (AFETR)
Your satellite tracking list
NOAA 16 DEB
Track 1 satellite(s)




NASA's NSSDC Master Catalog

Two Line Element Set (TLE):
1 02863U 67066B   25199.52485138 -.00000064  00000-0  00000-0 0  9997
2 02863   2.0895 105.4924 0060521 226.0549 352.5273  1.09897017121050
Source of the keplerian elements: AFSPC